Theta_e
353 351 354 359 359 355 352 353 359 357 354 353 357 353 355 355 353 353 349 348 347 346 344 344 345 341 345 344 343 342 344 346 345 348 345 348 348 345 342 337 341 350 351 350
356 352 352 353 354 354 354 358 360 357 355 354 357 360 354 355 354 353 354 349 348 346 346 344 344 343 345 347 345 344 344 345 346 348 346 344 345 347 350 346 344 351 350 353
359 356 348 353 356 357 359 357 356 358 353 359 356 360 359 356 356 360 356 352 348 347 347 344 345 343 345 346 347 346 343 349 346 350 349 348 350 349 352 354 354 355 354 354
356 355 351 356 359 357 360 354 350 353 355 364 357 365 363 355 357 360 356 355 352 347 347 346 346 345 345 345 345 346 347 348 348 349 349 352 349 352 351 349 351 352 352 351
353 353 359 361 359 352 352 352 352 349 355 359 360 366 361 356 357 357 355 353 352 348 348 348 347 348 347 346 347 345 345 348 350 349 349 352 353 351 349 349 347 346 348 341
356 352 354 353 350 348 349 349 347 354 354 364 359 360 361 358 359 354 352 350 350 349 348 349 349 350 351 348 348 348 347 347 352 354 353 353 353 349 348 347 347 346 346 341
356 349 347 345 350 349 350 357 358 360 364 366 360 361 353 355 353 353 351 353 348 352 349 350 350 350 351 351 351 352 353 354 356 355 353 350 349 347 344 344 347 347 343 341
353 353 348 345 348 350 347 349 352 354 349 363 359 362 353 352 351 339 338 347 358 359 354 354 348 351 355 354 352 357 358 354 352 349 345 344 339 337 338 339 343 343 340 339
351 349 346 342 344 347 342 342 341 331 334 337 357 352 356 351 347 343 341 340 360 361 356 353 353 353 354 352 350 352 348 347 344 340 335 334 333 334 336 338 339 338 337 335
349 344 337 339 341 343 344 335 326 325 331 341 344 351 356 352 344 341 338 342 358 355 352 349 348 348 347 343 340 340 338 336 333 333 332 333 332 332 333 335 335 334 334 333
339 333 326 326 325 330 336 339 326 324 326 327 331 349 349 346 340 339 336 353 351 351 350 348 347 346 342 340 339 338 337 337 337 336 333 332 332 332 331 331 331 331 330 329
325 323 324 325 324 326 325 328 326 325 329 327 328 363 350 341 339 339 353 347 344 347 346 343 344 345 343 340 339 339 339 338 338 337 334 334 333 331 332 330 330 330 329 327
324 325 324 325 323 325 326 326 325 324 324 330 330 365 347 343 354 353 347 345 345 344 343 341 340 341 340 340 339 338 339 338 337 334 333 332 331 329 328 329 329 329 326 325
325 323 323 323 324 325 328 327 326 324 326 326 328 366 362 358 355 349 346 346 344 343 341 340 339 338 339 339 338 339 337 335 335 333 332 331 330 330 330 328 327 326 324 322
325 327 329 327 327 328 328 328 328 326 325 327 326 354 360 354 353 348 345 344 345 344 342 340 339 340 341 341 340 337 337 336 334 332 331 331 330 329 328 327 326 324 321 323
328 332 334 334 332 331 333 332 332 332 328 329 328 355 348 340 349 349 347 347 347 346 344 341 340 340 342 339 338 336 336 336 336 334 333 331 330 330 329 326 322 320 322 323
328 332 335 334 333 333 334 333 333 333 334 338 341 346 340 342 350 350 348 347 348 347 344 343 342 342 342 339 337 336 335 334 334 334 333 332 331 330 327 325 324 325 324 325
329 335 335 334 334 338 331 330 333 334 345 350 347 341 338 337 335 336 343 347 347 345 342 342 342 341 341 339 338 337 336 335 334 333 333 332 329 328 327 327 326 326 326 326
330 334 334 334 332 332 333 335 335 335 342 345 344 341 336 336 337 337 337 343 344 341 342 343 342 341 339 339 337 336 335 335 335 333 331 330 329 328 328 327 326 324 324 324
332 333 330 330 336 335 337 334 334 332 340 336 340 337 336 339 341 336 337 330 338 343 343 343 341 340 338 335 333 332 330 330 330 330 330 330 329 330 329 328 328 325 324 323
335 337 336 334 336 336 338 336 332 334 346 332 334 344 336 336 340 338 332 335 340 342 340 340 337 334 332 330 330 329 329 331 329 330 329 329 328 328 327 326 326 326 325 324
338 338 339 340 343 345 337 337 345 340 338 335 339 343 345 341 337 334 336 339 341 341 341 337 334 332 329 329 330 331 327 328 326 326 327 327 327 327 327 326 326 326 326 326
337 338 343 340 342 337 334 335 334 335 338 343 345 343 344 340 336 334 334 338 341 342 337 333 331 331 329 331 329 331 328 329 328 327 327 327 327 327 326 324 325 326 326 325
335 336 339 339 339 337 337 333 335 334 338 336 335 334 339 340 342 341 341 340 340 339 333 331 331 332 332 330 330 332 332 329 328 328 328 328 327 327 326 326 325 324 326 327
337 337 336 336 336 337 333 333 335 335 335 333 331 330 331 337 339 337 336 340 341 338 334 330 331 332 332 330 330 331 333 330 329 329 330 330 329 329 328 327 327 326 326 325
336 336 336 338 335 333 334 334 335 336 334 332 331 330 326 327 333 335 333 336 341 337 332 331 332 333 334 332 331 331 330 332 330 330 329 329 327 322 323 324 325 324 324 324
Wind_Speed
6 4 4 12 18 9 6 3 5 10 19 13 12 8 8 10 7 8 13 13 11 11 15 27 30 32 36 33 27 24 30 28 24 23 16 13 10 12 12 11 10 12 12 9
8 5 8 20 8 5 9 11 9 17 15 15 10 5 1 8 11 5 14 15 15 11 16 21 27 31 37 36 31 27 21 29 26 24 17 17 15 6 8 16 15 15 11 9
2 14 17 11 19 10 2 8 9 16 17 3 3 3 8 5 8 11 18 28 15 17 17 18 20 30 33 36 35 30 29 26 25 21 17 16 12 9 6 10 8 8 6 6
8 12 21 9 7 18 3 16 18 18 12 3 5 2 3 5 5 10 10 18 20 17 18 19 19 28 31 35 38 37 33 29 28 21 18 14 13 4 14 16 10 12 11 13
9 9 17 21 27 23 8 14 19 15 3 6 5 2 7 4 6 9 22 24 18 12 19 21 21 30 34 37 36 40 39 34 29 29 26 15 7 8 10 8 7 8 5 11
15 11 4 13 9 9 4 3 6 5 4 4 5 5 7 5 10 16 19 19 3 15 12 22 31 33 31 36 35 37 38 37 29 24 18 12 9 4 6 5 0 11 17 10
10 7 5 8 11 7 10 7 4 3 1 7 8 1 9 11 11 14 14 20 27 22 20 20 21 26 30 34 35 33 28 24 20 20 17 13 10 4 3 5 12 19 13 14
6 4 5 5 7 4 12 5 2 6 5 3 4 6 4 11 11 14 25 26 12 15 14 13 9 21 17 16 28 24 31 26 21 22 19 15 12 10 7 7 12 14 18 17
2 3 4 8 8 11 7 3 10 3 4 3 5 4 7 5 7 10 12 13 7 14 17 17 18 21 25 29 24 35 34 32 28 25 21 15 14 12 14 14 15 18 17 11
2 2 4 5 5 7 9 12 4 4 2 4 5 5 7 8 7 12 15 8 9 14 15 13 15 20 26 32 30 32 31 30 27 22 16 14 15 16 15 16 17 14 13 11
8 6 7 7 5 6 6 11 6 4 4 5 3 5 8 15 17 15 10 9 11 13 10 9 13 20 26 28 27 28 28 21 17 12 12 15 15 15 12 13 14 12 10 8
7 2 3 9 12 6 7 6 5 4 7 3 4 2 11 12 6 6 9 9 10 11 6 6 11 18 22 23 22 23 16 15 12 11 13 16 14 12 12 12 11 9 7 5
5 4 5 10 10 8 9 11 9 9 4 2 3 1 8 10 7 10 10 8 9 8 8 5 7 10 15 18 18 15 13 14 15 16 18 15 14 13 12 11 9 7 8 6
7 1 5 6 9 4 8 13 11 5 3 6 2 8 13 14 15 10 9 8 7 6 5 4 4 8 11 14 14 13 13 12 14 14 14 12 12 11 9 8 9 8 7 7
4 4 6 7 9 9 10 10 13 9 8 2 9 5 20 14 14 12 12 10 10 9 10 6 6 8 13 13 13 10 11 13 15 15 14 13 10 10 9 10 8 8 9 7
5 4 4 6 8 13 16 16 10 11 9 7 8 8 4 9 12 12 11 12 10 10 11 10 7 8 10 16 16 15 14 13 12 12 13 13 13 13 11 10 9 8 7 5
6 3 3 4 7 10 12 10 10 7 8 5 3 6 6 8 10 9 8 6 7 6 9 11 9 12 14 18 20 18 18 17 15 14 15 14 14 14 13 10 8 7 6 7
8 4 3 5 5 8 10 10 9 5 12 18 16 14 11 8 8 7 6 4 9 11 10 10 14 15 17 18 18 19 18 17 17 16 15 15 14 12 12 11 9 8 8 9
6 2 1 2 3 7 9 5 4 4 5 12 12 8 12 10 9 8 12 8 8 13 15 17 22 19 19 20 20 19 18 17 16 17 16 13 13 12 12 14 12 7 7 6
14 7 1 2 4 5 3 1 5 2 2 6 13 13 11 3 4 6 11 14 16 19 21 22 24 20 20 21 18 18 13 12 12 15 14 12 10 8 8 8 6 8 7 9
2 3 5 3 2 2 8 15 7 5 2 4 9 18 15 5 9 13 21 21 21 25 24 25 26 24 23 19 17 15 14 12 9 14 11 10 8 6 6 8 8 7 7 10
3 3 3 4 3 7 8 7 6 3 3 8 6 5 16 14 14 14 17 8 16 18 20 27 25 24 22 20 18 16 12 9 9 7 7 7 7 8 10 10 14 11 12 16
4 3 0 2 3 2 4 3 7 9 1 10 10 13 11 11 9 8 5 6 9 22 24 28 28 25 22 20 17 13 11 10 9 7 8 8 9 11 13 13 13 16 18 19
5 5 4 5 14 9 6 2 20 4 3 8 9 7 6 9 10 9 11 10 16 23 24 29 29 26 24 21 16 13 13 12 10 10 11 12 14 17 19 20 21 22 23 24
3 3 2 4 10 6 7 8 8 4 7 8 9 9 9 9 8 9 8 7 13 21 23 25 26 27 26 24 20 17 13 15 14 13 14 15 18 22 24 26 28 27 27 24
2 3 1 3 7 6 6 18 7 6 5 8 9 8 8 9 3 8 8 13 18 19 20 15 18 26 26 27 24 19 15 14 16 14 11 13 13 17 20 16 21 25 27 25
Wind_Direction
326 340 292 206 200 211 125 99 163 313 298 270 213 179 204 212 186 214 188 180 181 179 164 163 164 159 157 163 166 171 180 181 180 188 208 226 245 245 245 242 276 199 181 184
6 296 334 331 242 141 96 62 319 303 280 282 82 166 48 307 337 62 346 184 181 190 174 167 166 156 159 166 172 178 184 185 186 191 198 213 224 243 277 258 260 186 172 160
270 286 309 328 15 96 24 145 237 242 286 161 131 52 33 9 344 20 332 329 184 195 168 168 167 162 163 171 175 180 191 182 191 191 205 227 248 259 40 62 111 133 107 110
239 226 244 283 209 220 192 189 204 227 249 35 13 245 151 93 49 87 248 287 263 200 164 169 170 162 170 176 182 188 189 196 198 193 205 231 245 105 76 74 78 74 57 47
247 189 221 239 216 207 213 171 207 227 144 96 1 331 278 284 195 167 227 235 241 203 170 171 174 168 176 179 185 192 196 199 204 202 207 220 215 88 79 56 52 28 261 282
244 234 247 260 306 309 181 172 235 35 76 61 223 122 270 254 208 201 233 244 283 207 179 175 174 175 176 183 184 193 194 198 200 199 208 197 165 117 45 33 160 217 218 247
246 257 11 20 337 302 64 64 292 345 70 204 171 272 252 209 56 46 2 346 323 271 175 173 174 180 178 182 185 188 181 174 170 175 170 162 159 155 185 160 159 162 174 167
214 285 26 317 120 270 287 184 237 269 288 155 153 231 274 111 126 89 55 14 303 48 61 58 178 172 131 175 189 165 162 149 152 131 126 129 133 131 127 130 157 158 154 164
254 180 208 152 167 154 288 313 230 284 297 51 184 159 49 97 125 94 104 140 294 64 56 57 60 75 92 88 92 132 135 139 136 128 120 117 115 120 126 129 146 141 144 150
131 37 221 267 133 245 199 255 356 334 333 296 215 204 191 189 157 143 172 187 68 60 67 63 70 80 83 92 100 106 112 115 122 129 131 127 128 130 133 142 133 132 130 136
161 146 284 337 270 253 211 238 242 188 164 198 280 314 186 167 169 176 111 71 55 59 47 82 94 89 91 96 102 106 112 113 119 134 133 139 139 141 145 141 137 134 133 141
0 75 335 267 280 11 31 5 352 123 280 257 171 312 135 137 120 117 94 81 74 70 56 38 78 106 106 113 117 118 122 127 131 140 132 139 140 142 141 140 139 141 147 159
8 339 352 338 341 354 1 343 352 350 12 338 44 110 110 145 146 116 110 100 94 92 99 85 63 83 110 124 131 129 121 122 134 143 143 142 145 145 143 138 138 141 139 144
97 269 216 222 246 302 339 330 331 20 30 323 20 145 155 164 143 119 113 107 105 111 105 115 130 121 122 131 140 131 125 122 134 139 144 148 150 148 150 153 148 143 135 138
130 227 258 273 288 303 293 280 294 293 263 270 289 101 162 158 145 149 145 147 152 158 153 163 159 164 148 143 133 128 129 138 138 141 140 143 152 145 142 139 144 151 154 143
324 289 341 320 320 324 323 318 312 301 270 274 259 90 59 90 105 131 154 158 164 177 165 161 181 198 163 133 135 137 133 135 148 148 145 144 142 148 147 144 144 140 143 151
316 311 30 284 321 315 307 297 303 319 343 331 48 126 166 117 134 141 155 158 151 160 165 157 172 200 153 153 154 153 147 147 150 156 153 153 153 154 153 152 152 167 186 202
269 264 197 243 278 268 263 268 335 317 91 98 117 148 158 122 90 49 359 359 117 134 168 154 156 164 163 155 160 155 156 156 157 154 155 157 163 169 167 173 192 211 225 238
285 290 269 135 260 290 312 327 92 337 62 136 132 142 70 100 89 56 11 317 217 167 173 160 165 172 167 164 171 165 167 175 175 162 164 176 185 187 193 206 212 236 250 261
17 7 177 302 262 271 209 98 274 144 25 107 128 127 134 164 132 178 161 213 245 165 146 154 167 172 156 152 150 150 146 148 166 178 183 188 200 204 199 218 227 241 252 269
334 357 255 270 299 339 26 343 326 29 217 143 112 136 129 180 222 182 193 214 214 144 154 159 150 148 145 153 164 167 175 189 170 177 172 179 192 209 231 239 242 251 264 274
267 239 204 58 66 338 12 5 36 239 289 163 153 156 165 190 153 162 190 144 145 147 144 149 144 152 162 171 178 174 170 166 169 176 180 194 207 228 248 261 245 249 251 260
322 118 109 94 254 149 258 195 269 290 346 139 152 142 143 145 163 182 162 73 198 150 142 156 156 160 173 182 181 173 179 183 178 190 203 217 233 241 251 258 250 245 256 264
307 35 99 61 334 239 214 120 254 263 136 107 98 103 86 143 154 169 146 168 152 146 156 158 162 168 175 181 185 195 195 196 200 217 229 239 244 248 251 255 257 259 261 264
218 69 86 223 25 310 337 241 244 139 99 95 79 79 83 105 119 125 122 131 133 144 153 166 171 178 183 187 191 200 209 211 215 230 243 256 257 254 258 259 258 257 258 261
110 189 106 263 159 180 256 310 150 123 128 124 115 91 70 64 101 133 136 133 144 153 164 178 190 190 190 191 193 197 209 213 218 230 257 281 296 306 291 279 266 259 263 268